カタログに戻る

COSMOS 2251 DEB

運用中LEO
NORAD 37961·DEBRIS·🇷🇺 Russia

打ち上げ Jun 16, 1993 から Plesetsk Cosmodrome

Loading…

次のパス (今後24時間)

TLE

経年Source: Space-Track

元期: Sep 12, 2026, 05:24 UTC

1 37961U 93036BPL 26255.22525765  .00001728  00000-0  36335-3 0  9992
2 37961  74.0449 336.1291 0040606 344.7307  15.2630 14.59858536840547

AllMySatでCOSMOS 2251 DEBをリアルタイム追跡

Download on the App Store